�������l�o���
Date,Time,MP-1(��Sv/h),MP-2(��Sv/h),MP-3(��Sv/h),MP-4(��Sv/h),MP-5(��Sv/h),MP-6(��Sv/h),MP-7(��Sv/h),MP-8(��Sv/h),����,����(m/s),���J
2019/12/10,00:00,0.713,1.031,0.689,1.293,0.903,0.407,0.717,0.680,��쐼,3.5,��
2019/12/10,00:10,0.714,1.035,0.692,1.294,0.904,0.409,0.714,0.680,��쐼,3.9,��
2019/12/10,00:20,0.713,1.034,0.692,1.292,0.904,0.408,0.718,0.679,��,3.2,��
2019/12/10,00:30,0.715,1.034,0.690,1.294,0.905,0.409,0.716,0.681,��,3.5,��
2019/12/10,00:40,0.714,1.032,0.691,1.293,0.905,0.409,0.716,0.681,��,3.4,��
2019/12/10,00:50,0.713,1.033,0.688,1.294,0.904,0.409,0.714,0.679,��,3.2,��
2019/12/10,01:00,0.714,1.033,0.692,1.293,0.904,0.409,0.717,0.680,��쐼,3.3,��
2019/12/10,01:10,0.713,1.035,0.692,1.293,0.903,0.409,0.717,0.679,��쐼,3.6,��
2019/12/10,01:20,0.714,1.033,0.690,1.291,0.904,0.410,0.716,0.678,��,4.4,��
2019/12/10,01:30,0.714,1.033,0.689,1.292,0.903,0.410,0.716,0.680,��,3.9,��
2019/12/10,01:40,0.713,1.032,0.688,1.294,0.904,0.409,0.716,0.681,��,2.4,��
2019/12/10,01:50,0.714,1.033,0.690,1.293,0.902,0.410,0.716,0.680,-,CALM,��
2019/12/10,02:00,0.712,1.031,0.691,1.291,0.904,0.409,0.716,0.680,��,0.9,��
2019/12/10,02:10,0.713,1.033,0.690,1.292,0.903,0.408,0.715,0.679,��,2.7,��
2019/12/10,02:20,0.713,1.033,0.691,1.293,0.903,0.409,0.716,0.680,��,3.1,��
2019/12/10,02:30,0.714,1.030,0.688,1.292,0.902,0.409,0.716,0.681,��쐼,2.6,��
2019/12/10,02:40,0.711,1.035,0.691,1.291,0.902,0.408,0.716,0.679,��쐼,1.8,��
2019/12/10,02:50,0.714,1.032,0.690,1.292,0.903,0.411,0.716,0.680,��쐼,1.4,��
2019/12/10,03:00,0.717,1.034,0.688,1.295,0.904,0.410,0.718,0.679,��,2.7,��
2019/12/10,03:10,0.712,1.030,0.690,1.292,0.902,0.410,0.715,0.679,��,2.4,��
2019/12/10,03:20,0.715,1.032,0.689,1.294,0.903,0.409,0.715,0.681,��,2.2,��
2019/12/10,03:30,0.714,1.033,0.690,1.291,0.905,0.409,0.716,0.680,��쐼,3.2,��
2019/12/10,03:40,0.714,1.032,0.691,1.292,0.902,0.409,0.716,0.680,��쐼,3.4,��
2019/12/10,03:50,0.714,1.033,0.690,1.292,0.902,0.408,0.716,0.680,��쐼,2.4,��
2019/12/10,04:00,0.714,1.031,0.690,1.292,0.903,0.409,0.717,0.680,��쐼,3.1,�L
2019/12/10,04:10,0.715,1.031,0.690,1.292,0.903,0.409,0.717,0.680,��쐼,3.5,�L
2019/12/10,04:20,0.714,1.031,0.691,1.292,0.904,0.410,0.717,0.681,��쐼,2.1,�L
2019/12/10,04:30,0.712,1.031,0.692,1.294,0.901,0.410,0.716,0.679,��쐼,1.8,��
2019/12/10,04:40,0.714,1.031,0.692,1.292,0.902,0.409,0.717,0.681,��쐼,1.7,��
2019/12/10,04:50,0.716,1.032,0.690,1.291,0.901,0.410,0.717,0.679,��쐼,2.8,�L
2019/12/10,05:00,0.713,1.032,0.690,1.292,0.901,0.408,0.716,0.680,��쐼,3.1,�L
2019/12/10,05:10,0.715,1.032,0.689,1.290,0.903,0.410,0.716,0.679,��쐼,2.9,�L
2019/12/10,05:20,0.716,1.032,0.689,1.292,0.902,0.409,0.716,0.680,��,2.4,��
2019/12/10,05:30,0.713,1.031,0.691,1.291,0.901,0.409,0.718,0.679,��,3.0,��
2019/12/10,05:40,0.712,1.032,0.690,1.294,0.904,0.410,0.717,0.679,��쐼,2.2,��
2019/12/10,05:50,0.713,1.033,0.691,1.292,0.903,0.409,0.717,0.681,��,1.1,��
2019/12/10,06:00,0.713,1.028,0.690,1.293,0.903,0.409,0.717,0.679,��,0.5,��
2019/12/10,06:10,0.713,1.030,0.691,1.290,0.901,0.409,0.716,0.679,��쓌,0.7,��
2019/12/10,06:20,0.713,1.031,0.691,1.293,0.902,0.409,0.715,0.678,��,0.8,��
2019/12/10,06:30,0.713,1.032,0.689,1.292,0.904,0.409,0.717,0.678,��쐼,0.9,��
2019/12/10,06:40,0.714,1.031,0.690,1.292,0.902,0.410,0.715,0.680,��,1.1,��
2019/12/10,06:50,0.715,1.032,0.691,1.292,0.903,0.410,0.717,0.680,��,1.4,��
2019/12/10,07:00,0.713,1.030,0.689,1.292,0.903,0.409,0.716,0.679,��,1.2,��
2019/12/10,07:10,0.715,1.029,0.692,1.291,0.904,0.409,0.716,0.679,��쐼,1.3,��
2019/12/10,07:20,0.714,1.032,0.690,1.292,0.902,0.410,0.717,0.680,��,1.7,��
2019/12/10,07:30,0.716,1.030,0.692,1.292,0.901,0.409,0.716,0.680,��쐼,1.6,��
2019/12/10,07:40,0.716,1.033,0.689,1.292,0.903,0.409,0.718,0.679,�쐼,1.8,��
2019/12/10,07:50,0.715,1.030,0.691,1.291,0.901,0.409,0.717,0.680,�쐼,2.3,��
2019/12/10,08:00,0.716,1.031,0.690,1.293,0.901,0.411,0.715,0.679,���쐼,2.2,��
2019/12/10,08:10,0.716,1.031,0.692,1.293,0.902,0.408,0.717,0.681,�쐼,2.1,��
2019/12/10,08:20,0.715,1.031,0.688,1.291,0.903,0.409,0.715,0.680,��쐼,2.0,��
2019/12/10,08:30,0.717,1.031,0.690,1.295,0.902,0.410,0.719,0.682,��쐼,1.9,��
2019/12/10,08:40,0.717,1.033,0.691,1.291,0.902,0.409,0.717,0.682,��쐼,1.6,��
2019/12/10,08:50,0.716,1.032,0.690,1.294,0.903,0.410,0.716,0.681,��쐼,1.4,��
2019/12/10,09:00,0.715,1.031,0.690,1.292,0.902,0.410,0.718,0.682,��,1.5,��
2019/12/10,09:10,0.717,1.031,0.691,1.293,0.903,0.408,0.715,0.681,��,1.7,��
2019/12/10,09:20,0.717,1.031,0.690,1.292,0.905,0.409,0.716,0.680,��,1.6,��
2019/12/10,09:30,0.717,1.030,0.687,1.291,0.903,0.411,0.717,0.681,��,2.0,��
2019/12/10,09:40,0.716,1.030,0.688,1.293,0.904,0.410,0.715,0.681,��쐼,1.1,��
2019/12/10,09:50,0.717,1.029,0.686,1.293,0.906,0.411,0.715,0.682,��쐼,1.2,��
2019/12/10,10:00,0.719,1.034,0.689,1.293,0.903,0.410,0.714,0.681,��,1.2,��
2019/12/10,10:10,0.716,1.033,0.689,1.295,0.904,0.411,0.716,0.682,��,1.1,��
2019/12/10,10:20,0.718,1.029,0.690,1.295,0.903,0.410,0.714,0.681,�쓌,0.7,��
2019/12/10,10:30,0.717,1.028,0.689,1.293,0.903,0.408,0.715,0.682,��쓌,1.1,��
2019/12/10,10:40,0.717,1.030,0.690,1.294,0.902,0.407,0.715,0.684,�쓌,1.5,��
2019/12/10,10:50,0.717,1.028,0.692,1.295,0.903,0.408,0.717,0.681,��쓌,1.5,��
2019/12/10,11:00,0.718,1.031,0.690,1.293,0.902,0.407,0.716,0.682,���쓌,0.8,��
2019/12/10,11:10,0.717,1.029,0.693,1.294,0.902,0.408,0.716,0.680,��,0.7,��
2019/12/10,11:20,0.717,1.028,0.691,1.292,0.904,0.407,0.715,0.682,��,1.3,��
2019/12/10,11:30,0.718,1.028,0.692,1.292,0.902,0.409,0.715,0.681,���k��,1.3,��
2019/12/10,11:40,0.715,1.029,0.690,1.295,0.903,0.408,0.716,0.683,���쓌,1.2,��
2019/12/10,11:50,0.718,1.028,0.691,1.293,0.902,0.410,0.714,0.682,���k��,1.5,��
2019/12/10,12:00,0.716,1.028,0.691,1.297,0.902,0.411,0.717,0.682,�k��,1.4,��
2019/12/10,12:10,0.717,1.029,0.694,1.293,0.903,0.411,0.715,0.681,���k��,1.8,��
2019/12/10,12:20,0.718,1.031,0.693,1.295,0.905,0.412,0.715,0.680,���k��,1.4,�L
2019/12/10,12:30,0.720,1.030,0.693,1.296,0.904,0.410,0.719,0.681,���k��,1.3,��
2019/12/10,12:40,0.718,1.025,0.693,1.293,0.905,0.411,0.718,0.681,���k��,0.5,��
2019/12/10,12:50,0.718,1.027,0.692,1.296,0.904,0.411,0.718,0.681,�쓌,0.8,��
2019/12/10,13:00,0.720,1.029,0.692,1.294,0.903,0.411,0.716,0.682,�쓌,1.4,��
2019/12/10,13:10,0.717,1.029,0.692,1.295,0.905,0.412,0.718,0.682,���k��,1.2,��
2019/12/10,13:20,0.718,1.030,0.692,1.296,0.903,0.413,0.716,0.682,���k��,0.8,��
2019/12/10,13:30,0.721,1.029,0.694,1.296,0.904,0.412,0.717,0.683,�쓌,2.0,��
2019/12/10,13:40,0.718,1.029,0.692,1.293,0.904,0.414,0.717,0.680,���쓌,0.7,��
2019/12/10,13:50,0.716,1.028,0.692,1.295,0.904,0.413,0.719,0.679,��,1.1,��
2019/12/10,14:00,0.719,1.030,0.691,1.295,0.905,0.412,0.717,0.678,�k��,0.9,��
2019/12/10,14:10,0.717,1.027,0.691,1.293,0.905,0.411,0.719,0.680,-,CALM,��
2019/12/10,14:20,0.718,1.029,0.689,1.294,0.904,0.413,0.719,0.678,���k��,1.0,��
2019/12/10,14:30,0.717,1.029,0.689,1.293,0.907,0.413,0.719,0.679,���k��,0.8,��
2019/12/10,14:40,0.719,1.032,0.690,1.294,0.904,0.411,0.720,0.680,���k��,1.6,��
2019/12/10,14:50,0.716,1.030,0.691,1.298,0.905,0.413,0.718,0.681,�k��,1.0,��
2019/12/10,15:00,0.717,1.034,0.692,1.294,0.904,0.413,0.720,0.681,���k��,1.0,��
2019/12/10,15:10,0.717,1.034,0.691,1.294,0.905,0.412,0.718,0.682,�k�k��,0.9,��
2019/12/10,15:20,0.716,1.034,0.692,1.293,0.904,0.411,0.719,0.680,���k��,0.7,��
2019/12/10,15:30,0.715,1.036,0.691,1.295,0.905,0.412,0.719,0.682,��,0.7,��
2019/12/10,15:40,0.717,1.033,0.692,1.293,0.901,0.412,0.720,0.681,-,CALM,��
2019/12/10,15:50,0.716,1.036,0.693,1.293,0.902,0.414,0.720,0.682,-,CALM,��
2019/12/10,16:00,0.717,1.035,0.693,1.293,0.904,0.413,0.719,0.682,-,CALM,��
2019/12/10,16:10,0.718,1.036,0.692,1.293,0.902,0.413,0.721,0.681,-,CALM,��
2019/12/10,16:20,0.719,1.034,0.691,1.292,0.906,0.412,0.719,0.679,��쐼,0.9,��
2019/12/10,16:30,0.719,1.035,0.692,1.294,0.906,0.412,0.719,0.681,��,0.8,��
2019/12/10,16:40,0.714,1.035,0.692,1.295,0.907,0.411,0.720,0.681,-,CALM,��
2019/12/10,16:50,0.715,1.035,0.691,1.294,0.904,0.412,0.718,0.681,��쓌,1.1,��
2019/12/10,17:00,0.715,1.035,0.694,1.293,0.905,0.412,0.720,0.681,��,0.7,��
2019/12/10,17:10,0.716,1.035,0.695,1.292,0.905,0.412,0.717,0.681,��쓌,1.2,��
2019/12/10,17:20,0.719,1.035,0.692,1.294,0.904,0.411,0.719,0.680,�k��,0.7,��
2019/12/10,17:30,0.721,1.035,0.694,1.295,0.904,0.412,0.718,0.682,-,CALM,��
2019/12/10,17:40,0.719,1.036,0.693,1.294,0.906,0.412,0.719,0.682,���k��,0.5,��
2019/12/10,17:50,0.720,1.034,0.692,1.294,0.906,0.411,0.717,0.679,��쐼,0.5,��
2019/12/10,18:00,0.720,1.036,0.691,1.297,0.907,0.413,0.718,0.680,-,CALM,��
2019/12/10,18:10,0.719,1.037,0.692,1.292,0.905,0.411,0.719,0.679,��,0.5,��
2019/12/10,18:20,0.721,1.036,0.693,1.295,0.906,0.412,0.719,0.682,��쐼,0.7,��
2019/12/10,18:30,0.720,1.031,0.694,1.297,0.905,0.411,0.718,0.680,��쐼,0.7,��
2019/12/10,18:40,0.720,1.036,0.692,1.294,0.907,0.410,0.719,0.681,��,0.7,��
2019/12/10,18:50,0.719,1.035,0.694,1.294,0.905,0.411,0.719,0.682,��쐼,0.6,��
2019/12/10,19:00,0.720,1.037,0.694,1.294,0.907,0.412,0.719,0.681,-,CALM,��
2019/12/10,19:10,0.719,1.034,0.694,1.294,0.906,0.410,0.717,0.680,-,CALM,��
2019/12/10,19:20,0.719,1.035,0.694,1.295,0.906,0.411,0.719,0.680,-,CALM,��
2019/12/10,19:30,0.719,1.035,0.694,1.296,0.906,0.410,0.718,0.682,-,CALM,��
2019/12/10,19:40,0.718,1.033,0.694,1.294,0.907,0.412,0.718,0.681,��쐼,0.7,��
2019/12/10,19:50,0.722,1.035,0.692,1.292,0.906,0.411,0.719,0.680,-,CALM,��
2019/12/10,20:00,0.720,1.035,0.693,1.295,0.904,0.412,0.719,0.681,-,CALM,��
2019/12/10,20:10,0.721,1.035,0.694,1.295,0.906,0.411,0.718,0.681,���쐼,0.5,��
2019/12/10,20:20,0.720,1.036,0.694,1.294,0.903,0.410,0.717,0.681,-,CALM,��
2019/12/10,20:30,0.720,1.035,0.694,1.293,0.906,0.412,0.717,0.682,-,CALM,��
2019/12/10,20:40,0.720,1.037,0.693,1.295,0.906,0.411,0.718,0.679,-,CALM,��
2019/12/10,20:50,0.722,1.036,0.694,1.293,0.908,0.412,0.718,0.681,�k�k��,0.8,��
2019/12/10,21:00,0.720,1.036,0.693,1.297,0.906,0.412,0.719,0.681,�k�k��,1.4,��
2019/12/10,21:10,0.720,1.035,0.694,1.294,0.906,0.413,0.719,0.681,�k�k��,0.8,��
2019/12/10,21:20,0.719,1.034,0.693,1.294,0.907,0.411,0.717,0.681,-,CALM,��
2019/12/10,21:30,0.721,1.036,0.694,1.296,0.906,0.412,0.718,0.680,-,CALM,��
2019/12/10,21:40,0.721,1.036,0.692,1.295,0.905,0.411,0.717,0.681,�k�k��,0.5,��
2019/12/10,21:50,0.722,1.035,0.693,1.296,0.906,0.410,0.718,0.680,�k��,0.9,��
2019/12/10,22:00,0.719,1.034,0.694,1.293,0.904,0.412,0.720,0.681,-,CALM,��
2019/12/10,22:10,0.718,1.035,0.694,1.292,0.907,0.411,0.718,0.682,��,0.8,��
2019/12/10,22:20,0.718,1.033,0.693,1.292,0.906,0.413,0.720,0.681,���쐼,1.1,��
2019/12/10,22:30,0.720,1.032,0.693,1.294,0.905,0.411,0.718,0.682,���쐼,1.0,��
2019/12/10,22:40,0.721,1.034,0.692,1.294,0.905,0.411,0.718,0.681,-,CALM,��
2019/12/10,22:50,0.720,1.033,0.694,1.296,0.905,0.411,0.720,0.680,-,CALM,��
2019/12/10,23:00,0.719,1.034,0.693,1.292,0.905,0.411,0.716,0.681,-,CALM,��
2019/12/10,23:10,0.720,1.035,0.693,1.292,0.907,0.410,0.719,0.682,-,CALM,��
2019/12/10,23:20,0.721,1.035,0.693,1.295,0.905,0.411,0.719,0.680,-,CALM,��
2019/12/10,23:30,0.720,1.034,0.695,1.293,0.906,0.411,0.718,0.679,-,CALM,��
2019/12/10,23:40,0.719,1.034,0.693,1.294,0.905,0.411,0.720,0.679,�k�k��,0.6,��
2019/12/10,23:50,0.719,1.035,0.692,1.293,0.908,0.411,0.719,0.681,�k�k��,0.9,��
